Location: Centerville
(32.8776°N, 96.6203°W)
Time: 16:16:47
(UTC+00:00)

ATLAS CENTAUR R/B - Pass Details

Date: 17 June 2021
Orbit: 472 x 671 km, 64.6° (Epoch: 13 June)

Event Time Altitude Azimuth Distance (km) Brightness Sun altitude
Rises 04:05:03 0° 353° (N) 2,820 5.9 -24.3°
Reaches altitude 10° 04:08:19 10° 19° (NNE) 1,962 4.5 -24.7°
Maximum altitude 04:10:37 14° 51° (NE) 1,746 3.9 -25.0°
Enters shadow 04:10:56 14° 55° (NE) 1,754 3.9 -25.0°
